• In Russia
  • List of Countries
  • For 7 days
  • Water Temperature
  • Weather Map
  • Weather Widgets
  • user-avatar
    Login

    Hourly Weather Dawson

    Today, 7 June, Sunday

    Time Temperature Precipitation Wind Pressure Humidity
    00:00 +8°C° 0 mm 1 mps 684 mmHg 45%
    01:00 +8°C° 0 mm 1 mps 685 mmHg 47%
    02:00 +8°C° 0 mm 1 mps 685 mmHg 49%
    03:00 +7°C° 0 mm 1 mps 685 mmHg 51%
    04:00 +9°C° 0 mm 1 mps 685 mmHg 49%
    05:00 +10°C° 0 mm 1 mps 685 mmHg 47%
    06:00 +12°C° 0 mm 1 mps 685 mmHg 45%
    07:00 +12°C° 0.3 mm 1 mps 685 mmHg 54%
    08:00 +12°C° 0.3 mm 2 mps 685 mmHg 63%
    09:00 +12°C° 0.3 mm 2 mps 684 mmHg 72%
    10:00 +13°C° 0.3 mm 2 mps 685 mmHg 67%
    11:00 +14°C° 0.3 mm 2 mps 685 mmHg 62%
    12:00 +16°C° 0.3 mm 1 mps 685 mmHg 56%
    13:00 +18°C° 0.1 mm 1 mps 685 mmHg 51%
    14:00 +19°C° 0.1 mm 1 mps 685 mmHg 45%
    15:00 +20°C° 0.1 mm 1 mps 685 mmHg 40%
    16:00 +20°C° 0.2 mm 1 mps 684 mmHg 42%
    17:00 +19°C° 0.2 mm 1 mps 684 mmHg 44%
    18:00 +18°C° 0.2 mm 1 mps 684 mmHg 46%
    19:00 +16°C° 0 mm 1 mps 683 mmHg 54%
    20:00 +14°C° 0 mm 1 mps 683 mmHg 62%
    21:00 +12°C° 0 mm 1 mps 682 mmHg 69%
    22:00 +11°C° 0 mm 1 mps 682 mmHg 74%
    23:00 +10°C° 0 mm 1 mps 682 mmHg 79%

    Tomorrow, 8 June, Monday

    Time Temperature Precipitation Wind Pressure Humidity
    00:00 +8°C° 0 mm 1 mps 682 mmHg 84%
    01:00 +8°C° 0 mm 1 mps 682 mmHg 85%
    02:00 +8°C° 0 mm 1 mps 682 mmHg 86%
    03:00 +7°C° 0 mm 1 mps 682 mmHg 88%
    04:00 +7°C° 0.2 mm 0 mps 682 mmHg 84%
    05:00 +9°C° 0.2 mm 0 mps 682 mmHg 81%
    06:00 +10°C° 0.2 mm 0 mps 682 mmHg 77%
    07:00 +12°C° 0.1 mm 0 mps 682 mmHg 70%
    08:00 +14°C° 0.1 mm 0 mps 683 mmHg 62%
    09:00 +16°C° 0.1 mm 0 mps 683 mmHg 54%
    10:00 +17°C° 0.2 mm 0 mps 683 mmHg 49%
    11:00 +18°C° 0.2 mm 0 mps 683 mmHg 44%
    12:00 +19°C° 0.2 mm 0 mps 683 mmHg 39%
    13:00 +21°C° 0.1 mm 1 mps 683 mmHg 37%
    14:00 +21°C° 0.1 mm 1 mps 683 mmHg 35%
    15:00 +21°C° 0.1 mm 1 mps 683 mmHg 33%
    16:00 +20°C° 0.1 mm 1 mps 683 mmHg 37%
    17:00 +19°C° 0.1 mm 1 mps 683 mmHg 41%
    18:00 +17°C° 0.1 mm 2 mps 682 mmHg 45%
    19:00 +15°C° 0.2 mm 1 mps 682 mmHg 56%
    20:00 +14°C° 0.2 mm 1 mps 682 mmHg 66%
    21:00 +12°C° 0.2 mm 1 mps 682 mmHg 76%
    22:00 +11°C° 0.1 mm 1 mps 682 mmHg 80%
    23:00 +9°C° 0.1 mm 0 mps 682 mmHg 83%

    Day after tomorrow, 9 June, Tuesday

    Time Temperature Precipitation Wind Pressure Humidity
    00:00 +7°C° 0.1 mm 0 mps 682 mmHg 86%
    01:00 +7°C° 0 mm 0 mps 682 mmHg 85%
    02:00 +7°C° 0 mm 0 mps 682 mmHg 85%
    03:00 +8°C° 0 mm 1 mps 683 mmHg 85%
    04:00 +9°C° 0 mm 1 mps 683 mmHg 83%
    05:00 +9°C° 0 mm 1 mps 683 mmHg 81%
    06:00 +10°C° 0 mm 1 mps 683 mmHg 79%
    07:00 +12°C° 0.1 mm 1 mps 684 mmHg 72%
    08:00 +13°C° 0.1 mm 1 mps 684 mmHg 65%
    09:00 +15°C° 0.1 mm 1 mps 684 mmHg 58%
    10:00 +15°C° 0.4 mm 1 mps 685 mmHg 56%
    11:00 +16°C° 0.4 mm 1 mps 685 mmHg 55%
    12:00 +18°C° 0.4 mm 1 mps 685 mmHg 53%
    13:00 +18°C° 0.3 mm 1 mps 685 mmHg 49%
    14:00 +19°C° 0.3 mm 1 mps 685 mmHg 45%
    15:00 +19°C° 0.3 mm 1 mps 684 mmHg 41%
    16:00 +17°C° 0.4 mm 2 mps 684 mmHg 50%
    17:00 +15°C° 0.4 mm 2 mps 684 mmHg 59%
    18:00 +13°C° 0.4 mm 3 mps 684 mmHg 69%
    19:00 +13°C° 0.1 mm 2 mps 684 mmHg 74%
    20:00 +12°C° 0.1 mm 1 mps 684 mmHg 79%
    21:00 +10°C° 0.1 mm 1 mps 684 mmHg 85%
    22:00 +9°C° 0 mm 1 mps 684 mmHg 87%
    23:00 +8°C° 0 mm 1 mps 685 mmHg 89%

    10 June, Wednesday

    Time Temperature Precipitation Wind Pressure Humidity
    00:00 +6°C° 0 mm 0 mps 685 mmHg 91%
    01:00 +6°C° 0 mm 0 mps 685 mmHg 91%
    02:00 +6°C° 0 mm 0 mps 686 mmHg 91%
    03:00 +5°C° 0 mm 0 mps 686 mmHg 91%
    04:00 +7°C° 0 mm 0 mps 687 mmHg 86%
    05:00 +8°C° 0 mm 0 mps 687 mmHg 80%
    06:00 +10°C° 0 mm 0 mps 688 mmHg 75%
    07:00 +12°C° 0 mm 0 mps 688 mmHg 66%
    08:00 +14°C° 0 mm 0 mps 689 mmHg 57%
    09:00 +17°C° 0 mm 0 mps 690 mmHg 47%
    10:00 +19°C° 0 mm 1 mps 690 mmHg 42%
    11:00 +20°C° 0 mm 1 mps 690 mmHg 37%
    12:00 +21°C° 0 mm 1 mps 690 mmHg 32%
    13:00 +21°C° 0 mm 1 mps 690 mmHg 30%
    14:00 +22°C° 0 mm 1 mps 690 mmHg 27%
    15:00 +22°C° 0 mm 1 mps 690 mmHg 25%
    16:00 +22°C° 0 mm 1 mps 690 mmHg 26%
    17:00 +19°C° 0 mm 0 mps 690 mmHg 26%
    18:00 +19°C° 0 mm 0 mps 690 mmHg 27%
    19:00 +17°C° 0 mm 0 mps 690 mmHg 33%
    20:00 +15°C° 0 mm 0 mps 690 mmHg 38%
    21:00 +14°C° 0 mm 0 mps 690 mmHg 44%
    22:00 +13°C° 0 mm 0 mps 690 mmHg 48%
    23:00 +11°C° 0 mm 0 mps 690 mmHg 51%

    11 June, Thursday

    Time Temperature Precipitation Wind Pressure Humidity
    00:00 +11°C° 0 mm 1 mps 690 mmHg 54%
    01:00 +11°C° 0 mm 1 mps 690 mmHg 57%
    02:00 +10°C° 0 mm 1 mps 690 mmHg 59%
    03:00 +10°C° 0 mm 1 mps 690 mmHg 61%
    04:00 +11°C° 0 mm 0 mps 691 mmHg 57%
    05:00 +12°C° 0 mm 0 mps 691 mmHg 53%
    06:00 +13°C° 0 mm 0 mps 691 mmHg 49%
    07:00 +16°C° 0 mm 0 mps 691 mmHg 43%
    08:00 +18°C° 0 mm 0 mps 692 mmHg 36%
    09:00 +20°C° 0 mm 0 mps 692 mmHg 30%
    10:00 +21°C° 0 mm 0 mps 692 mmHg 27%
    11:00 +22°C° 0 mm 0 mps 692 mmHg 25%
    12:00 +26°C° 0 mm 1 mps 692 mmHg 22%
    13:00 +26°C° 0 mm 1 mps 692 mmHg 22%
    14:00 +26°C° 0 mm 1 mps 692 mmHg 22%
    15:00 +26°C° 0 mm 1 mps 692 mmHg 22%
    16:00 +25°C° 0 mm 1 mps 692 mmHg 23%
    17:00 +24°C° 0 mm 1 mps 692 mmHg 24%
    18:00 +24°C° 0 mm 1 mps 691 mmHg 25%
    19:00 +22°C° 0 mm 1 mps 691 mmHg 32%
    20:00 +20°C° 0 mm 1 mps 691 mmHg 40%
    21:00 +18°C° 0 mm 1 mps 691 mmHg 47%
    22:00 +15°C° 0 mm 1 mps 691 mmHg 52%
    23:00 +14°C° 0 mm 1 mps 690 mmHg 56%

    12 June, Friday

    Time Temperature Precipitation Wind Pressure Humidity
    00:00 +12°C° 0 mm 1 mps 690 mmHg 61%
    01:00 +11°C° 0 mm 0 mps 690 mmHg 64%
    02:00 +10°C° 0 mm 0 mps 690 mmHg 66%
    03:00 +10°C° 0 mm 0 mps 690 mmHg 68%
    04:00 +11°C° 0 mm 0 mps 690 mmHg 64%
    05:00 +13°C° 0 mm 0 mps 690 mmHg 60%
    06:00 +14°C° 0 mm 0 mps 691 mmHg 56%
    07:00 +16°C° 0 mm 0 mps 691 mmHg 50%
    08:00 +18°C° 0 mm 0 mps 691 mmHg 45%
    09:00 +20°C° 0 mm 0 mps 691 mmHg 39%
    10:00 +21°C° 0 mm 0 mps 691 mmHg 35%
    11:00 +23°C° 0 mm 0 mps 691 mmHg 31%
    12:00 +25°C° 0 mm 0 mps 691 mmHg 27%
    13:00 +27°C° 0 mm 1 mps 690 mmHg 26%
    14:00 +27°C° 0 mm 1 mps 690 mmHg 25%
    15:00 +27°C° 0 mm 1 mps 690 mmHg 24%
    16:00 +24°C° 0.2 mm 1 mps 689 mmHg 36%
    17:00 +20°C° 0.2 mm 2 mps 688 mmHg 48%
    18:00 +17°C° 0.2 mm 3 mps 688 mmHg 60%
    19:00 +16°C° 0.5 mm 2 mps 687 mmHg 70%
    20:00 +14°C° 0.5 mm 2 mps 687 mmHg 81%
    21:00 +13°C° 0.5 mm 2 mps 687 mmHg 91%
    22:00 +12°C° 0.2 mm 1 mps 687 mmHg 92%
    23:00 +11°C° 0.2 mm 1 mps 686 mmHg 93%
    Show more